Flag for Germany Weather past 2 weeks in Gerolstein, Rhineland-Palatinate, Germany

Now
51 °F

Overcast.


Feels Like: 49 °F
Forecast: 37 / 59 °F
Wind: 6 mph from North

Location: Nuerburg-Barweiler

Current Time: May 26, 2015 at 3:57:43 PM

Latest Report: May 26, 2015 at 3:00 PM


Visibility: 37 mi

Pressure: 30.16 "Hg

Humidity: 55%

Dew point: 35 °F

Location of GerolsteinLocation

Historic Weather in Gerolstein — Graph

°F

Gerolstein temperature yesterday

Maximum temperature yesterday: 58 °F (at 4:00 PM)
Minimum temperature yesterday: 48 °F (at 7:00 AM)
Average temperature yesterday: 52 °F

Past Weeks' High & Low Weather Summary

 TemperatureHumidityPressure
High75 °F (May 12, 2:00 PM)99% (May 15, 3:00 AM)30.36 "Hg (May 15, 3:00 AM)
Low36 °F (May 16, 6:00 AM)31% (May 11, 4:00 PM)29.68 "Hg (May 18, 8:00 PM)
Average53 °F70%30.07 "Hg
* Reported May 11 3:00 PM — May 26 3:00 PM, Gerolstein, Weather by CustomWeather, © 2015

Note: Actual official high and low records may vary slightly from our data, if they occured in-between our weather recording intervals... More about our weather records

Advertising

Gerolstein weather history for previous 24 hours

 ConditionsComfort  
Time TempWeatherWind HumidityBarometerVisibility
3:00 PM
Tue, May 26
51 °FOvercast.6 mph55%30.16 "Hg37 mi
2:00 PM50 °FOvercast.5 mph52%30.16 "Hg37 mi
1:00 PM49 °FOvercast.5 mph60%30.15 "Hg40 mi
12:00 PM49 °FOvercast.6 mph60%30.14 "Hg34 mi
10:00 AM46 °FOvercast.6 mph69%30.13 "Hg22 mi
9:00 AM45 °FOvercast.5 mph82%30.12 "Hg16 mi
8:00 AM44 °FLow clouds.5 mph86%30.11 "Hg15 mi
7:00 AM42 °FScattered clouds.5 mph88%30.09 "Hg11 mi
4:00 AM44 °FLow clouds.3 mph88%30.06 "Hg11 mi
3:00 AM44 °FPassing clouds.3 mph85%30.06 "Hg14 mi
2:00 AM45 °FPassing clouds.5 mph84%30.05 "Hg16 mi
1:00 AM47 °FOvercast.3 mph84%30.04 "Hg14 mi
12:00 AM47 °FPassing clouds.5 mph82%30.03 "Hg14 mi
10:00 PM
Mon, May 25
51 °FOvercast.3 mph80%30.00 "Hg13 mi
9:00 PM51 °FPartly sunny.3 mph79%29.98 "Hg12 mi
8:00 PM52 °FPartly sunny.3 mph77%29.98 "Hg12 mi
7:00 PM53 °FOvercast.6 mph81%29.97 "Hg14 mi
6:00 PM55 °FScattered clouds.5 mph81%29.95 "Hg11 mi
5:00 PM51 °FSprinkles. Overcast.3 mph90%29.97 "Hg12 mi
4:00 PM58 °FOvercast.2 mph70%29.94 "Hg11 mi
3:00 PM54 °FOvercast.2 mph81%29.97 "Hg16 mi
Weather by CustomWeather, © 2015

See weather overviewHow to use our weather pages